Location: Bosmont
(49.7318°N, 3.8587°E)
Time: 22:47:00
(UTC+00:00)

Cosmos 2058 - Pass Details

Date: 08 February 2023
Orbit: 556 x 577 km, 82.5° (Epoch: 01 April)

Event Time Altitude Azimuth Distance (km) Brightness Sun altitude
Rises 19:37:54 0° 204° (SSW) 2,787 6.6 -27.3°
Reaches altitude 10° 19:40:09 10° 210° (SSW) 1,891 5.7 -27.6°
Enters shadow 19:43:12 39° 245° (WSW) 884 4.1 -28.1°
